Location: ??
(35.4627°N, 139.3695°E)
Time: 15:39:47
(UTC+00:00)

SJ-12 - Pass Details

Date: 25 November 2020
Orbit: 569 x 584 km, 97.7° (Epoch: 20 January)

Event Time Altitude Azimuth Distance (km) Brightness Sun altitude
Rises 20:06:14 0° 4° (N) 2,778 7.3 -16.6°
Reaches altitude 10° 20:08:26 10° 358° (N) 1,876 6.4 -16.2°
Maximum altitude 20:12:19 45° 286° (WNW) 779 4.1 -15.4°
Drops below altitude 10° 20:16:10 10° 213° (SSW) 1,863 6.3 -14.6°
Sets 20:18:22 0° 207° (SSW) 2,757 7.3 -14.2°
